Theta_e
345 345 345 346 348 352 353 355 356 355 355 355 355 354 352 352 350 349 348 347 347 349 352 354 355 355 355 353 351 351 354 355 354 353 351 350 350 350 351 352 350 349 352 353 351 350 352 352 350 351 353 349 346 347 345 345 348 348 348 350 354 353 350
345 346 348 348 350 352 353 354 355 354 353 354 355 354 353 352 350 349 349 348 349 351 352 352 354 354 352 351 351 352 354 353 350 350 349 349 348 348 350 350 349 348 351 353 351 349 350 351 350 349 351 350 347 348 347 347 349 351 350 352 356 356 353
345 348 350 349 351 352 352 353 354 354 353 353 354 353 353 352 350 349 348 348 350 352 353 353 353 352 352 352 353 354 353 351 349 349 350 350 349 348 348 348 348 348 350 351 351 350 349 350 350 349 350 349 348 348 350 351 351 352 352 353 356 356 356
345 347 348 348 351 352 351 352 353 353 353 353 354 353 353 351 350 350 349 349 351 352 353 353 353 353 353 353 352 353 353 350 348 349 350 351 352 350 349 349 349 349 349 350 350 350 349 349 350 349 349 349 349 349 351 353 353 354 353 354 357 355 354
347 348 348 350 350 351 351 350 352 353 353 354 354 353 353 351 350 351 350 350 351 351 353 352 352 353 353 352 353 353 353 350 348 350 351 352 352 351 351 350 350 349 348 349 349 349 349 350 349 349 350 350 349 349 352 353 353 354 353 354 357 357 354
357 354 352 352 349 351 353 350 350 352 352 355 354 353 353 351 351 351 351 351 351 352 353 352 352 353 353 353 353 352 351 351 351 351 352 352 352 352 352 351 351 350 349 348 349 350 349 349 349 349 351 350 348 349 351 352 352 352 353 353 356 357 354
359 354 353 354 348 350 352 351 351 353 352 353 354 353 353 351 351 352 351 351 352 352 352 352 353 352 353 354 353 351 351 352 352 352 352 352 351 351 352 352 350 350 350 349 350 350 349 349 349 349 349 349 349 350 350 352 351 352 352 352 355 356 354
352 352 352 351 346 352 353 352 352 354 354 353 353 353 352 352 352 352 352 352 352 353 353 352 353 353 353 354 352 352 352 352 352 352 352 351 350 351 352 351 349 348 349 349 349 349 348 348 349 349 348 349 351 350 350 351 351 351 351 351 353 356 355
351 352 352 349 348 357 355 352 353 356 355 355 354 353 353 353 354 353 353 353 352 353 353 353 353 353 352 352 352 351 351 352 352 352 351 350 350 351 351 350 349 346 348 349 348 347 348 348 348 348 348 349 350 349 349 350 350 350 351 351 352 356 355
352 351 354 354 352 355 353 350 354 357 355 355 356 355 355 354 354 354 353 354 353 353 353 353 352 351 351 352 351 351 351 351 352 352 352 350 350 351 351 351 349 346 347 348 346 346 347 348 347 347 347 349 349 348 349 350 351 351 351 351 352 355 355
354 352 355 357 355 354 350 349 353 355 355 356 356 356 356 355 355 355 353 354 353 352 352 352 349 349 350 350 349 349 351 351 351 351 350 349 350 352 352 352 350 348 348 347 346 346 347 347 347 347 347 348 347 347 347 348 350 352 351 351 351 353 354
354 355 354 355 357 353 349 348 349 350 353 355 355 355 356 356 356 355 355 353 352 353 352 350 349 349 349 349 349 349 349 350 349 348 348 349 351 352 352 350 349 350 350 348 346 346 347 347 347 346 346 347 346 346 346 346 348 351 351 350 350 351 353
351 354 353 355 357 352 349 348 347 348 350 352 354 355 356 356 355 355 354 353 351 352 352 350 350 350 349 349 349 348 348 349 349 350 350 350 351 350 348 347 347 349 349 348 346 345 346 348 347 346 346 346 346 347 347 346 347 349 349 349 348 348 349
351 352 351 355 356 353 351 349 347 348 350 351 352 354 355 355 354 353 353 352 351 352 352 349 349 350 349 348 348 348 349 349 348 350 352 351 350 348 347 347 348 348 347 348 347 345 346 347 346 346 346 346 347 348 348 346 346 347 348 347 347 346 346
350 349 348 351 356 356 353 349 347 346 347 348 350 351 352 353 354 353 352 350 350 352 352 350 348 349 348 347 348 349 349 348 347 348 351 351 348 347 348 348 349 348 345 346 346 345 345 346 346 347 345 345 347 348 348 346 345 348 347 347 347 345 346
346 345 346 348 355 358 355 352 350 346 345 347 348 349 351 352 353 351 348 348 349 350 352 350 348 347 347 348 347 347 347 348 348 349 351 351 348 348 350 350 349 346 344 346 346 345 346 346 346 346 345 345 347 348 347 346 346 348 347 347 348 346 347
342 343 345 349 354 357 357 355 352 348 349 350 349 349 351 352 352 348 346 349 350 350 351 350 348 347 347 348 348 349 348 349 349 349 350 350 349 350 351 349 348 345 344 345 345 345 347 347 346 346 345 346 346 347 347 345 345 347 347 346 346 347 348
342 344 346 350 354 356 356 356 352 350 352 352 352 351 350 352 354 352 350 352 352 352 352 351 350 349 350 350 350 350 350 349 349 349 350 350 350 351 351 347 346 346 345 345 345 346 347 347 347 346 345 345 346 347 347 345 343 344 345 345 346 347 348
342 343 346 349 351 353 356 355 352 353 353 352 351 352 352 353 355 355 354 355 355 355 355 354 354 353 353 353 352 350 348 348 350 350 351 352 351 350 350 348 346 345 346 347 348 347 347 347 347 346 345 344 345 345 345 344 343 342 343 344 344 346 348
343 343 345 348 348 350 353 350 350 351 352 351 350 351 351 353 356 357 355 356 356 356 355 355 355 355 355 354 353 350 349 349 351 352 353 354 351 349 349 348 346 344 345 347 347 347 349 349 348 347 346 345 344 344 344 343 343 342 342 342 343 344 347
349 347 345 349 350 352 352 350 351 351 353 354 351 350 351 351 354 357 356 355 356 356 354 354 355 355 355 355 353 352 352 352 352 353 354 354 351 350 349 347 346 345 346 346 346 348 350 350 348 347 346 346 346 346 346 345 344 344 344 343 343 344 347
351 348 344 347 351 355 351 349 350 351 353 356 355 354 355 354 355 357 356 355 356 357 355 353 353 352 351 353 354 353 352 352 352 353 354 353 352 352 350 349 347 345 347 348 347 349 350 350 349 348 347 348 348 347 348 347 345 345 346 345 345 346 347
344 344 342 343 346 353 351 346 347 350 351 355 357 358 358 356 356 357 357 355 355 356 355 353 353 350 346 345 348 349 351 352 352 352 352 352 353 353 351 351 349 347 348 348 347 348 349 350 351 350 350 350 350 348 349 349 347 346 346 346 346 346 346
341 340 340 341 342 349 351 350 350 351 352 355 357 357 358 357 357 357 356 355 355 355 355 353 353 350 346 342 342 346 351 353 351 351 350 350 352 353 353 352 351 350 349 349 349 349 349 350 351 351 351 351 350 350 350 349 349 348 347 346 346 346 346
341 339 341 344 342 345 351 353 353 355 357 358 357 358 358 358 358 357 356 357 356 356 355 354 353 353 351 346 342 344 350 351 350 350 350 350 351 352 352 353 353 352 351 351 351 350 349 350 350 350 350 350 349 349 348 348 348 347 347 347 346 346 346
341 341 342 343 343 347 351 354 355 357 359 359 358 359 358 357 357 356 356 356 356 355 355 354 354 354 353 350 346 346 349 350 349 350 350 350 351 352 352 352 352 352 352 352 352 351 351 352 352 351 352 351 350 350 349 348 348 347 347 347 347 347 347
340 342 342 344 349 353 353 354 355 355 355 356 358 357 356 356 356 354 354 355 355 354 353 353 353 353 353 353 349 346 347 349 349 349 350 351 352 353 353 353 352 352 352 352 352 352 352 353 353 353 353 352 352 352 350 350 350 349 348 348 348 349 349
342 346 349 351 353 351 349 351 353 353 352 354 355 354 354 353 352 352 352 352 352 351 351 352 352 351 351 353 351 347 347 350 350 350 350 351 352 353 353 352 352 351 351 351 351 351 352 352 353 353 353 353 353 353 352 352 351 351 351 350 350 350 350
348 351 352 352 349 347 349 352 353 353 353 354 353 352 352 351 351 351 351 350 350 350 350 351 351 352 352 351 351 350 350 350 350 351 350 351 352 353 352 352 352 351 351 352 352 351 351 351 352 352 352 352 352 352 353 353 352 351 352 352 352 352 352
349 350 349 347 345 346 351 353 354 354 353 353 352 351 351 350 350 350 349 348 350 350 351 351 351 351 351 350 350 350 349 349 350 350 349 350 350 350 350 350 351 350 350 351 351 351 351 351 351 351 351 351 351 352 352 351 351 351 351 351 351 352 352
349 349 347 345 345 346 350 353 354 354 353 353 351 350 350 349 349 348 347 348 350 350 350 350 349 350 349 349 350 349 348 348 349 348 348 348 348 348 348 348 348 349 349 349 349 349 349 350 350 350 350 350 351 351 351 350 349 349 349 350 351 351 351
351 349 346 346 347 348 351 354 355 354 353 352 350 349 348 347 347 347 347 348 349 348 348 348 348 348 348 348 349 349 347 347 347 347 347 347 346 346 346 347 347 347 347 347 347 347 348 348 348 349 349 349 350 350 349 348 347 347 347 348 349 350 351
350 347 346 348 349 350 353 355 354 353 352 350 348 347 347 346 345 345 346 346 346 345 346 348 348 348 347 347 348 348 347 347 347 346 346 346 344 343 344 345 345 345 345 345 345 345 346 346 346 346 347 347 347 348 348 348 347 347 348 350 351 352 352
349 346 349 351 350 352 353 353 353 351 350 349 347 346 345 345 345 344 344 344 344 343 345 346 346 347 347 346 346 346 346 346 346 346 346 345 344 344 343 344 345 344 344 345 344 344 345 345 345 345 345 345 345 344 344 344 345 346 348 348 348 348 348
347 346 352 353 352 352 353 352 350 350 349 348 346 345 344 344 343 343 343 343 343 344 345 345 345 346 347 346 346 346 345 345 345 345 345 344 345 344 344 344 344 343 344 344 343 343 343 343 343 343 342 341 341 340 340 341 341 342 342 342 341 341 340
347 348 353 354 351 352 352 351 350 348 348 347 346 345 344 343 343 343 342 342 343 344 345 345 346 346 346 346 345 344 344 345 345 344 344 344 344 344 344 343 342 341 341 342 342 341 340 340 340 339 339 338 338 337 337 337 337 337 337 337 337 337 336
351 352 354 352 352 353 352 350 349 348 347 346 345 344 343 343 342 342 343 343 344 344 345 346 346 346 346 346 345 344 344 344 344 344 343 343 343 343 343 343 342 340 339 339 339 338 337 336 336 337 337 336 336 336 336 335 335 336 335 335 335 335 334
353 354 353 351 352 352 351 350 349 348 346 346 345 344 343 342 342 342 343 344 344 344 345 346 346 346 346 345 345 345 344 344 344 344 343 343 342 342 342 342 343 342 340 338 337 336 336 335 336 336 336 336 336 336 336 336 336 336 336 336 335 334 333
Wind_Speed
3 4 3 3 4 1 1 1 1 2 4 4 7 10 10 13 16 20 27 29 28 27 26 27 26 24 25 25 25 24 22 21 22 20 20 21 21 22 21 20 22 22 17 15 16 17 17 17 18 18 17 19 18 16 17 17 14 14 14 12 11 10 12
3 2 3 5 3 2 1 2 3 3 3 4 7 9 10 11 12 16 22 25 26 27 26 26 25 25 26 26 24 23 23 23 24 22 20 20 22 22 22 21 21 22 22 19 16 17 19 19 19 19 17 19 19 16 16 17 15 14 13 13 13 12 12
2 0 3 7 3 3 3 3 4 4 5 5 8 9 10 10 10 14 21 23 23 23 25 25 24 24 24 25 24 22 22 24 25 23 20 19 20 21 22 22 22 23 24 24 21 17 18 20 20 20 19 19 19 17 16 16 16 16 14 14 15 14 13
3 2 4 7 3 2 4 3 4 6 7 8 10 10 11 11 12 16 20 22 22 21 22 24 23 22 21 24 25 20 19 23 25 24 20 18 18 18 20 23 24 24 24 25 23 18 18 20 20 21 21 20 20 19 18 17 16 16 15 14 15 15 15
2 1 3 4 3 2 4 5 6 7 8 11 13 12 12 13 13 16 17 19 20 21 22 23 22 20 19 23 24 20 19 22 24 23 20 19 19 18 20 22 22 24 26 28 26 21 21 22 21 21 21 21 21 20 19 19 17 17 16 16 15 15 15
1 3 3 4 4 3 3 5 8 10 10 12 14 14 13 13 13 14 14 16 18 18 18 19 19 19 19 19 21 22 21 20 20 21 21 20 20 19 20 20 19 20 24 28 27 23 23 22 21 22 21 21 21 20 20 19 18 17 17 17 17 15 15
2 1 3 7 7 2 2 6 8 12 12 12 13 14 14 13 13 12 12 13 14 15 16 17 16 17 16 15 18 22 21 19 20 20 20 21 21 20 18 18 21 20 20 26 29 25 23 23 22 22 22 21 21 20 20 20 19 18 17 18 18 17 17
4 3 4 9 5 3 3 6 8 13 13 13 12 12 13 13 12 12 12 12 12 13 16 17 16 16 16 15 17 20 20 19 20 20 20 21 22 21 19 20 25 25 21 24 30 29 24 23 23 23 22 22 21 21 20 21 20 18 17 19 19 18 17
5 4 4 7 2 5 1 5 7 13 12 13 12 11 12 12 12 12 12 12 12 13 14 15 15 16 17 17 17 17 18 18 17 17 19 21 20 20 19 19 25 28 23 22 28 30 25 24 26 25 23 22 23 22 21 21 22 19 18 19 19 19 18
3 3 2 5 2 5 4 5 3 9 9 10 11 11 12 11 12 12 12 13 13 14 14 15 15 16 16 16 15 16 17 16 15 17 20 20 18 18 18 17 21 25 23 22 26 28 27 26 26 25 24 24 23 23 22 21 21 20 18 18 18 18 18
2 2 3 4 2 9 8 7 4 1 5 8 9 10 11 11 11 12 13 13 13 13 13 13 13 13 12 13 14 16 17 17 17 19 22 21 18 17 17 17 19 22 23 24 28 29 27 26 25 23 24 24 23 23 22 21 21 20 19 18 17 18 18
4 4 2 2 4 10 6 2 5 6 4 5 8 9 10 10 10 10 10 10 10 9 9 7 6 8 11 13 15 16 16 18 21 21 21 21 21 21 20 19 22 22 21 22 27 28 25 24 24 23 24 24 23 23 23 23 22 20 20 18 17 18 18
3 3 2 1 5 8 5 5 2 4 7 4 5 8 9 9 9 9 9 8 8 8 8 7 8 12 15 16 17 17 16 18 19 18 18 20 23 24 22 22 24 25 22 18 22 26 24 23 23 22 22 23 22 21 22 23 22 20 21 19 18 19 19
3 3 4 4 6 6 4 3 4 2 4 4 5 3 5 6 7 9 10 10 10 10 11 12 15 19 17 16 16 15 16 18 17 15 15 18 22 22 22 22 22 25 25 19 19 25 27 24 22 21 20 21 22 21 21 22 21 21 22 22 20 20 20
4 4 3 4 6 7 5 4 3 2 4 5 5 2 4 5 6 9 9 11 12 11 13 15 17 19 15 14 16 14 13 16 17 14 12 16 20 21 20 20 19 22 26 22 20 25 25 22 21 21 20 21 22 21 19 21 21 20 22 23 22 20 19
4 4 3 5 6 7 6 6 6 6 2 4 7 7 7 7 6 9 6 9 12 13 13 12 14 16 14 12 15 14 13 13 14 13 13 15 19 20 18 15 15 20 23 22 22 24 22 20 19 20 19 19 21 21 20 20 20 20 22 22 21 21 20
4 4 4 6 7 6 6 6 7 6 7 8 10 9 6 4 6 10 10 10 11 13 13 11 12 15 14 13 13 13 13 13 14 16 15 14 16 18 16 13 14 19 22 23 26 24 21 19 19 19 19 19 20 21 21 20 20 21 23 23 22 23 21
5 5 4 6 7 6 7 10 9 4 6 6 8 8 8 7 8 12 13 12 10 12 12 11 13 14 13 13 14 12 11 12 13 13 12 12 13 14 10 8 11 18 21 22 25 22 19 19 19 19 19 19 20 21 21 21 21 22 25 26 25 24 23
4 4 4 7 8 8 10 11 5 7 7 6 6 6 8 9 9 9 11 12 11 11 11 11 11 12 10 11 12 11 10 10 11 10 9 10 10 8 6 4 8 15 18 16 17 16 16 17 18 18 18 18 19 21 21 21 22 23 24 27 27 27 26
4 3 5 6 6 9 13 9 7 9 7 7 7 7 7 8 7 7 9 10 10 10 11 11 10 9 9 9 10 9 8 8 8 8 8 10 11 9 7 7 9 14 15 13 13 13 14 16 16 17 18 17 17 18 18 19 20 20 21 23 26 28 30
4 3 4 5 5 9 14 10 9 8 5 6 7 7 8 9 7 7 8 8 8 8 9 9 8 8 7 8 8 7 6 6 6 7 8 9 11 11 9 10 11 12 10 9 11 13 15 16 16 17 18 17 17 16 15 16 18 18 18 21 25 29 33
6 4 4 4 3 11 18 13 11 10 8 7 8 7 7 8 8 7 7 8 8 8 8 8 8 7 5 6 8 7 8 8 9 10 10 9 9 9 8 11 14 14 12 11 13 13 13 14 15 16 17 18 19 18 16 16 19 19 17 17 20 25 31
8 6 5 5 5 16 24 19 12 12 12 8 7 8 8 8 8 7 7 7 7 7 8 9 8 8 8 8 8 7 9 11 11 12 12 11 10 9 9 11 14 16 16 15 16 15 12 12 13 14 15 15 16 18 17 16 17 19 19 16 15 18 24
10 7 6 8 11 19 24 19 12 11 12 9 8 8 8 9 9 8 7 7 6 6 6 6 7 9 12 13 11 8 8 10 11 12 13 12 12 11 11 11 13 15 15 14 15 16 16 15 14 14 14 16 16 17 17 16 16 17 19 18 17 19 25
7 8 7 8 11 14 18 18 14 11 10 9 9 9 9 9 8 7 7 6 6 6 5 4 5 6 8 13 15 12 10 11 13 14 14 13 13 12 12 12 13 14 14 13 14 16 17 16 16 15 16 18 18 18 20 20 19 19 19 18 17 21 28
4 6 9 9 11 16 20 19 15 11 10 9 9 10 10 9 8 6 5 5 5 5 4 4 4 3 4 9 14 14 12 13 14 13 12 12 11 10 10 11 11 11 11 11 12 13 14 14 14 14 15 17 19 20 21 22 22 22 23 22 20 21 25
9 8 10 13 17 21 20 18 15 12 10 9 10 10 10 9 8 6 5 4 4 3 2 2 2 2 4 7 11 12 10 11 11 8 8 9 9 8 9 9 9 9 9 9 10 10 10 10 10 10 10 13 16 19 21 22 23 24 24 25 25 23 23
10 11 15 19 21 17 14 15 15 13 11 9 8 8 7 6 6 5 4 3 2 1 2 2 2 3 4 5 8 11 11 10 9 7 7 8 8 8 8 8 8 8 8 9 9 9 8 9 10 10 10 11 13 15 17 18 20 22 23 24 25 25 25
11 14 17 17 15 13 12 14 14 12 11 9 7 6 4 4 5 4 3 2 1 2 2 2 2 2 3 5 8 12 12 10 8 7 7 7 7 7 7 7 7 7 8 8 9 9 9 10 11 11 12 13 14 15 16 17 19 21 22 23 24 25 26
11 14 15 13 12 13 14 14 13 12 10 8 7 6 4 3 3 3 2 2 3 3 1 1 2 2 2 5 9 11 11 9 7 7 6 6 5 5 5 6 6 7 8 8 8 9 9 10 11 12 12 13 15 16 16 18 20 22 23 24 25 25 26
12 13 12 11 12 14 13 14 13 12 10 8 7 6 4 3 2 2 1 2 3 2 1 0 1 1 2 5 9 10 10 8 6 5 5 5 4 4 3 4 5 6 7 8 9 9 9 9 9 10 12 13 15 16 17 18 19 20 21 23 24 25 26
11 12 12 12 14 14 14 14 14 12 10 9 7 5 4 3 2 1 1 2 1 1 1 0 1 1 2 5 7 8 8 7 6 5 5 5 5 4 2 2 3 4 5 6 7 8 8 8 9 10 11 13 13 15 16 17 18 18 19 20 22 23 25
9 10 11 13 15 15 14 14 13 11 10 9 7 5 4 3 2 1 1 1 2 2 2 2 1 2 2 4 6 7 6 5 6 6 6 5 5 4 4 4 5 5 5 6 6 6 7 8 9 10 10 11 11 11 12 13 14 14 15 15 16 18 19
8 9 11 14 16 15 14 13 12 11 11 9 7 6 4 3 2 1 0 1 3 3 0 0 1 2 3 3 5 6 6 5 6 7 7 6 6 6 7 6 6 7 7 7 7 6 6 7 7 7 7 7 8 10 11 11 10 10 10 9 10 13 14
8 9 12 15 15 14 13 12 11 11 10 9 8 7 5 3 2 1 1 2 3 3 2 2 2 3 3 3 4 5 6 6 6 7 7 7 7 8 8 8 7 6 6 7 7 7 7 6 5 5 7 8 9 11 13 14 13 13 15 16 17 20 21
11 11 13 15 15 14 13 11 11 11 10 9 9 7 5 4 3 2 2 3 3 3 3 3 3 4 5 5 5 5 5 6 7 6 5 6 6 7 8 8 8 8 7 7 8 9 9 10 10 11 11 12 13 12 13 14 15 15 16 19 22 25 27
14 13 14 15 14 13 13 11 10 11 10 9 9 7 5 4 3 3 3 3 3 2 3 4 4 5 5 4 3 2 2 3 5 5 6 6 6 6 7 7 8 9 10 10 9 9 8 7 7 7 6 7 8 8 9 11 12 13 15 18 20 22 25
16 15 15 15 14 13 13 12 10 10 10 9 8 7 6 5 4 4 3 3 2 3 4 4 4 5 5 3 2 2 2 1 1 3 5 7 7 7 7 7 7 8 10 12 11 10 7 5 4 4 4 4 5 7 9 9 10 13 16 18 21 23 24
Wind_Direction
231 246 265 270 253 247 261 175 128 149 157 171 174 168 176 180 175 176 179 183 193 197 186 177 179 182 185 189 188 187 187 190 192 191 190 189 189 190 190 190 189 187 186 189 196 200 201 202 199 197 195 193 196 199 199 200 198 196 204 212 211 211 210
232 274 282 266 231 178 197 154 144 144 139 154 158 160 168 167 164 170 175 180 186 188 182 177 180 183 187 191 189 189 193 197 198 196 192 191 194 195 196 197 196 196 194 189 195 205 207 205 203 201 196 193 196 199 198 198 197 194 200 209 208 209 213
203 117 278 268 234 175 188 159 146 132 120 138 146 153 160 153 154 165 171 176 179 181 179 178 182 184 186 189 188 191 198 200 198 196 191 190 194 198 202 203 204 206 202 194 193 203 208 206 205 204 199 195 197 199 198 198 199 199 202 208 209 209 218
201 183 249 266 264 179 177 176 156 134 129 136 138 144 149 148 155 162 169 176 175 175 180 183 186 185 186 190 190 191 197 199 200 198 193 191 192 196 201 204 206 209 206 199 197 203 206 205 204 204 201 197 197 198 199 200 201 203 204 208 211 212 220
234 246 246 263 277 245 202 189 166 145 137 135 138 143 145 151 162 165 170 177 175 176 182 186 189 189 189 192 193 194 194 195 200 201 198 195 193 196 199 201 205 208 207 203 203 208 208 204 204 203 200 198 198 198 199 201 203 203 204 207 209 211 218
33 331 306 293 262 239 238 212 169 148 144 139 142 148 148 155 167 169 172 179 182 185 187 189 193 195 195 194 196 199 197 196 199 201 199 198 196 196 198 199 199 204 208 205 204 208 207 204 203 201 199 199 199 198 199 201 203 203 204 207 210 212 215
114 312 301 275 251 212 260 232 162 141 146 144 144 149 152 157 166 174 180 184 189 189 189 191 194 197 200 200 201 202 200 200 202 201 201 201 200 198 198 199 198 199 205 205 203 204 203 203 204 202 201 200 198 199 200 200 202 203 204 207 210 214 219
156 191 244 262 266 56 315 245 159 141 149 149 150 155 157 159 164 174 184 188 192 192 192 195 195 198 201 203 205 205 204 205 204 203 204 205 203 200 197 202 204 201 204 209 207 202 200 203 205 204 203 199 197 200 203 202 201 203 205 207 210 214 220
166 185 234 271 287 92 322 264 155 144 151 155 158 161 164 167 167 173 185 190 191 193 197 201 201 201 203 205 209 210 209 210 208 207 210 210 207 201 199 206 210 206 205 213 210 202 202 206 205 203 203 201 199 202 205 204 202 204 207 208 210 213 217
164 182 224 277 287 94 41 324 148 144 153 159 161 162 169 175 170 172 183 188 189 194 199 205 210 210 204 204 210 213 211 211 210 211 214 217 212 202 200 209 214 209 208 212 209 206 209 210 205 202 202 201 202 204 206 201 197 203 209 210 211 213 217
175 215 224 263 345 59 42 338 322 144 165 165 166 167 169 175 174 176 183 186 190 197 199 201 211 214 204 203 214 215 210 210 213 214 215 218 213 201 200 209 212 209 208 207 205 206 209 206 203 202 200 201 203 205 208 206 199 203 208 210 214 215 217
205 214 222 253 65 75 79 320 338 331 280 183 172 172 167 172 176 174 180 185 189 198 198 188 188 191 189 199 215 218 216 217 218 217 215 216 212 206 205 208 208 207 207 204 200 201 204 203 203 203 200 202 204 204 208 210 205 205 208 210 216 218 218
221 203 166 121 96 101 140 171 139 300 289 260 202 182 166 171 176 169 170 175 178 189 192 185 196 202 195 197 207 213 217 219 216 212 210 212 213 214 214 214 212 212 214 210 201 204 211 209 205 204 202 203 205 204 206 207 205 207 210 212 217 220 221
218 213 180 145 124 128 158 177 155 195 291 295 261 216 152 167 176 158 158 167 170 183 191 191 206 213 204 198 202 203 208 214 213 209 211 214 215 215 216 218 220 218 217 213 206 212 217 210 201 204 205 204 206 206 206 207 207 209 212 214 217 221 222
204 221 192 158 151 148 161 186 156 77 1 328 286 243 158 189 180 139 150 176 178 191 200 190 196 206 202 201 208 210 212 219 220 219 223 225 219 216 217 221 225 220 213 213 216 218 218 207 198 205 208 204 205 206 206 208 208 210 214 215 217 223 225
208 221 200 178 169 152 164 177 146 125 153 237 232 207 183 194 166 127 156 200 191 198 205 188 187 199 197 199 210 214 213 218 219 216 222 228 221 220 220 213 216 220 216 223 231 223 214 204 198 204 208 205 204 206 209 212 211 212 214 214 217 224 228
215 214 209 184 165 149 153 137 109 126 173 189 200 200 186 181 145 142 177 210 204 203 203 189 187 193 192 195 202 205 204 210 214 211 214 220 220 227 223 194 202 220 218 225 231 220 206 202 199 203 209 207 206 209 213 215 215 216 216 217 220 223 225
213 199 191 154 143 143 125 100 94 151 194 185 189 186 172 172 165 160 175 193 203 203 196 188 185 184 188 196 196 197 199 207 214 210 211 217 218 231 234 188 198 215 207 213 221 209 196 200 201 205 208 207 208 212 216 217 219 221 219 217 221 223 223
228 185 158 139 145 141 105 90 117 195 195 183 196 194 174 175 179 172 173 182 191 194 191 190 187 182 187 189 186 190 194 200 209 206 210 222 216 224 242 194 191 203 200 207 211 194 188 199 205 210 213 212 214 217 219 220 223 227 221 217 222 225 224
222 174 143 138 149 129 107 115 191 212 194 182 202 210 185 178 184 173 169 178 183 183 187 194 193 187 188 183 180 185 179 176 193 197 203 219 215 208 204 184 194 207 207 206 202 196 199 201 201 208 213 215 222 225 226 224 226 231 229 227 230 227 222
174 153 124 123 131 113 111 136 192 201 182 175 191 204 192 189 192 171 160 173 178 176 180 189 196 195 187 182 184 184 167 155 175 189 194 207 213 211 194 176 190 208 206 201 210 219 221 211 205 209 211 215 222 227 231 233 233 237 241 244 243 232 222
145 123 116 136 128 111 121 149 190 185 171 165 170 182 186 188 190 176 167 176 179 177 178 184 197 200 187 190 197 185 166 170 187 193 192 194 201 209 202 185 188 193 190 197 210 217 220 217 214 214 212 215 220 221 226 233 234 239 249 255 248 234 226
144 142 160 172 121 108 126 152 181 175 169 171 168 168 167 168 176 177 176 180 181 182 183 182 187 186 182 196 216 212 190 188 196 198 195 194 194 199 202 198 196 197 199 204 206 207 212 216 215 215 213 213 217 219 222 228 232 238 248 252 245 237 236
145 175 191 162 124 110 124 147 164 161 166 176 173 168 165 164 170 176 176 177 179 184 191 191 188 185 176 172 183 207 212 207 210 209 205 205 205 201 201 202 204 205 208 212 213 213 215 215 213 215 216 215 218 220 221 225 231 237 243 244 240 236 235
157 174 156 141 133 123 130 145 153 152 162 174 173 174 174 170 174 181 180 178 179 186 202 206 197 191 165 149 154 173 202 215 214 211 211 214 213 208 208 210 209 207 211 218 222 222 221 220 222 223 223 223 225 227 229 231 234 237 239 240 239 234 229
221 166 140 143 137 129 133 143 149 151 161 172 171 171 173 171 175 185 184 182 185 194 209 212 205 191 140 132 142 157 186 213 213 204 209 217 215 212 218 221 215 209 211 217 222 225 226 228 232 232 231 231 232 232 235 237 237 237 237 238 240 238 234
201 159 136 131 123 126 138 148 151 153 160 169 168 166 168 169 172 179 179 181 191 197 189 182 175 139 125 134 139 145 172 211 215 205 211 217 211 208 217 222 217 212 214 217 219 221 223 227 232 235 238 241 243 243 244 245 245 243 241 240 240 240 239
158 126 115 117 122 133 145 142 143 149 155 161 164 162 164 167 165 163 168 184 203 178 127 113 106 112 126 141 142 142 160 192 205 203 205 210 209 209 212 217 219 217 217 221 223 223 225 229 231 234 239 244 248 249 249 250 252 252 250 248 246 245 245
124 121 123 129 138 146 139 132 139 149 151 155 159 153 156 165 157 151 159 170 148 114 110 90 83 103 124 131 131 135 147 167 181 182 181 190 203 210 211 211 216 218 216 218 221 224 232 239 241 241 245 247 250 250 249 250 254 257 258 258 256 253 251
128 130 138 150 153 147 140 139 143 147 148 153 153 145 149 159 148 145 152 121 91 94 108 100 92 105 128 125 124 130 139 151 165 169 169 179 193 209 219 217 218 225 223 220 221 225 231 239 241 242 246 249 250 251 252 253 257 261 262 262 261 261 258
136 139 151 158 149 145 147 144 144 148 149 149 145 139 135 125 117 132 122 89 85 94 117 193 148 139 128 120 122 131 140 144 149 152 154 166 181 200 220 223 228 236 235 230 228 229 232 237 238 240 245 249 250 252 256 262 265 267 267 266 264 263 262
143 151 160 153 143 145 147 145 148 152 147 144 144 142 134 124 117 103 73 73 78 161 155 181 234 197 152 134 132 137 146 150 152 153 157 169 186 202 216 235 247 252 255 250 243 240 244 248 247 246 248 251 255 259 266 270 272 272 272 271 270 269 268
152 160 161 149 144 147 146 148 154 154 149 151 152 148 145 141 140 117 78 66 258 233 168 152 220 225 200 168 154 153 161 168 168 171 178 186 196 206 218 239 249 252 259 262 257 255 258 258 258 260 262 267 272 277 281 282 280 280 279 274 270 270 269
156 163 153 144 146 149 150 156 161 158 159 160 156 156 161 159 162 156 109 270 283 292 288 160 245 246 237 212 186 179 181 187 187 187 190 195 198 204 212 225 241 251 258 262 261 261 264 271 278 281 285 296 306 309 308 307 304 299 294 288 284 281 276
157 166 153 148 154 157 158 164 165 163 165 160 154 160 165 164 185 223 244 256 284 308 309 291 278 269 259 235 214 200 187 189 198 198 195 196 201 209 215 219 229 245 259 266 261 255 259 271 285 289 290 296 306 310 308 304 301 296 292 289 289 289 287
158 170 162 158 162 160 159 165 164 161 162 155 151 160 169 173 193 219 231 243 256 260 260 269 273 272 266 248 235 224 205 200 204 205 206 208 208 215 223 226 226 231 244 254 254 255 263 269 269 273 279 281 283 287 288 289 293 298 299 295 290 286 284
162 173 169 165 165 159 158 164 162 158 157 152 151 160 168 172 186 204 212 222 234 236 250 270 276 273 273 267 263 277 257 224 210 202 208 218 223 228 235 235 226 222 229 237 244 252 264 268 262 262 270 273 275 284 291 294 303 315 319 317 311 302 293
165 172 173 170 166 161 160 161 161 160 157 152 152 159 164 174 187 193 195 198 215 233 237 248 265 275 281 294 325 344 329 309 254 200 202 214 224 230 240 245 234 223 226 233 239 243 238 217 209 227 252 271 283 299 309 314 322 325 324 324 324 319 309